owner,sensor,date,latitude,longitude,air_temperature,qcFlag 
DISL,ioos:station:DISL:DISL:1,2009-03-01T00:00:00Z,30.2513,-88.0778,15.51,1111122 
DISL,ioos:station:DISL:DISL:1,2009-03-01T01:00:00Z,30.2513,-88.0778,13.2,1111122 
DISL,ioos:station:DISL:DISL:1,2009-03-01T02:00:00Z,30.2513,-88.0778,12.07,1111122 
DISL,ioos:station:DISL:DISL:1,2009-03-01T03:00:00Z,30.2513,-88.0778,10.51,1111122 
DISL,ioos:station:DISL:DISL:1,2009-03-01T04:00:00Z,30.2513,-88.0778,9.54,1111122 
DISL,ioos:station:DISL:DISL:1,2009-03-01T04:30:00Z,30.2513,-88.0778,9.05,1111122 
DISL,ioos:station:DISL:DISL:1,2009-03-01T05:30:00Z,30.2513,-88.0778,8.4,1111122 
DISL,ioos:station:DISL:DISL:1,2009-03-01T06:00:00Z,30.2513,-88.0778,7.94,1111122 
DISL,ioos:station:DISL:DISL:1,2009-03-01T06:30:00Z,30.2513,-88.0778,7.79,1111122 
DISL,ioos:station:DISL:DISL:1,2009-03-01T07:00:00Z,30.2513,-88.0778,7.17,1111122 
DISL,ioos:station:DISL:DISL:1,2009-03-01T07:30:00Z,30.2513,-88.0778,6.749,1111122 
DISL,ioos:station:DISL:DISL:1,2009-03-01T08:00:00Z,30.2513,-88.0778,6.192,1111122 
DISL,ioos:station:DISL:DISL:1,2009-03-01T08:30:00Z,30.2513,-88.0778,5.981,1111122 
DISL,ioos:station:DISL:DISL:1,2009-03-01T09:00:00Z,30.2513,-88.0778,5.033,1111122 
DISL,ioos:station:DISL:DISL:1,2009-03-01T09:30:00Z,30.2513,-88.0778,4.318,1111122 
DISL,ioos:station:DISL:DISL:1,2009-03-01T10:00:00Z,30.2513,-88.0778,4.016,1111122 
DISL,ioos:station:DISL:DISL:1,2009-03-01T10:30:00Z,30.2513,-88.0778,3.722,1111122 
DISL,ioos:station:DISL:DISL:1,2009-03-01T11:00:00Z,30.2513,-88.0778,3.865,1111122 
DISL,ioos:station:DISL:DISL:1,2009-03-01T11:30:00Z,30.2513,-88.0778,3.827,1111122 
DISL,ioos:station:DISL:DISL:1,2009-03-01T12:00:00Z,30.2513,-88.0778,3.618,1111122 
DISL,ioos:station:DISL:DISL:1,2009-03-01T12:30:00Z,30.2513,-88.0778,3.418,1111122 
DISL,ioos:station:DISL:DISL:1,2009-03-01T13:00:00Z,30.2513,-88.0778,3.162,1111122 
DISL,ioos:station:DISL:DISL:1,2009-03-01T13:30:00Z,30.2513,-88.0778,3.332,1111122 
DISL,ioos:station:DISL:DISL:1,2009-03-01T14:00:00Z,30.2513,-88.0778,3.095,1111122 
DISL,ioos:station:DISL:DISL:1,2009-03-01T14:30:00Z,30.2513,-88.0778,3.285,1111122 
DISL,ioos:station:DISL:DISL:1,2009-03-01T15:00:00Z,30.2513,-88.0778,3.029,1111122 
DISL,ioos:station:DISL:DISL:1,2009-03-01T15:30:00Z,30.2513,-88.0778,3.38,1111122 
DISL,ioos:station:DISL:DISL:1,2009-03-01T16:00:00Z,30.2513,-88.0778,3.209,1111122 
DISL,ioos:station:DISL:DISL:1,2009-03-01T16:30:00Z,30.2513,-88.0778,3.162,1111122 
DISL,ioos:station:DISL:DISL:1,2009-03-01T17:00:00Z,30.2513,-88.0778,3.685,1111122 
DISL,ioos:station:DISL:DISL:1,2009-03-01T17:30:00Z,30.2513,-88.0778,3.77,1111122 
DISL,ioos:station:DISL:DISL:1,2009-03-01T18:00:00Z,30.2513,-88.0778,5.172,1111122 
DISL,ioos:station:DISL:DISL:1,2009-03-01T18:30:00Z,30.2513,-88.0778,6.605,1111122 
DISL,ioos:station:DISL:DISL:1,2009-03-01T19:00:00Z,30.2513,-88.0778,7.73,1111122 
DISL,ioos:station:DISL:DISL:1,2009-03-01T19:30:00Z,30.2513,-88.0778,9.38,1111122 
DISL,ioos:station:DISL:DISL:1,2009-03-01T20:00:00Z,30.2513,-88.0778,10.52,1111122 
DISL,ioos:station:DISL:DISL:1,2009-03-01T20:30:00Z,30.2513,-88.0778,11.18,1111122 
DISL,ioos:station:DISL:DISL:1,2009-03-01T21:00:00Z,30.2513,-88.0778,11.66,1111122 
DISL,ioos:station:DISL:DISL:1,2009-03-01T21:30:00Z,30.2513,-88.0778,12.11,1111122 
DISL,ioos:station:DISL:DISL:1,2009-03-01T22:00:00Z,30.2513,-88.0778,12.24,1111122 
DISL,ioos:station:DISL:DISL:1,2009-03-01T22:30:00Z,30.2513,-88.0778,12.23,1111122 
DISL,ioos:station:DISL:DISL:1,2009-03-01T23:00:00Z,30.2513,-88.0778,12.15,1111122 
DISL,ioos:station:DISL:DISL:1,2009-03-01T23:30:00Z,30.2513,-88.0778,11.74,1111122 
DISL,ioos:station:DISL:DISL:1,2009-03-02T00:00:00Z,30.2513,-88.0778,11.38,1111122 
DISL,ioos:station:DISL:DISL:1,2009-03-02T00:30:00Z,30.2513,-88.0778,10.8,1111122 
DISL,ioos:station:DISL:DISL:1,2009-03-02T01:00:00Z,30.2513,-88.0778,10.25,1111122 
DISL,ioos:station:DISL:DISL:1,2009-03-02T01:30:00Z,30.2513,-88.0778,9.69,1111122 
DISL,ioos:station:DISL:DISL:1,2009-03-02T02:00:00Z,30.2513,-88.0778,9.19,1111122 
DISL,ioos:station:DISL:DISL:1,2009-03-02T02:30:00Z,30.2513,-88.0778,8.77,1111122 
DISL,ioos:station:DISL:DISL:1,2009-03-02T03:00:00Z,30.2513,-88.0778,8.59,1111122 
DISL,ioos:station:DISL:DISL:1,2009-03-02T03:30:00Z,30.2513,-88.0778,7.95,1111122 
DISL,ioos:station:DISL:DISL:1,2009-03-02T04:00:00Z,30.2513,-88.0778,7.52,1111122 
DISL,ioos:station:DISL:DISL:1,2009-03-02T04:30:00Z,30.2513,-88.0778,7.09,1111122 
DISL,ioos:station:DISL:DISL:1,2009-03-02T05:00:00Z,30.2513,-88.0778,6.72,1111122 
DISL,ioos:station:DISL:DISL:1,2009-03-02T05:30:00Z,30.2513,-88.0778,6.095,1111122 
DISL,ioos:station:DISL:DISL:1,2009-03-02T06:00:00Z,30.2513,-88.0778,5.846,1111122 
DISL,ioos:station:DISL:DISL:1,2009-03-02T06:30:00Z,30.2513,-88.0778,5.138,1111122 
DISL,ioos:station:DISL:DISL:1,2009-03-02T07:00:00Z,30.2513,-88.0778,4.738,1111122 
DISL,ioos:station:DISL:DISL:1,2009-03-02T07:30:00Z,30.2513,-88.0778,4.721,1111122 
DISL,ioos:station:DISL:DISL:1,2009-03-02T08:00:00Z,30.2513,-88.0778,3.722,1111122 
DISL,ioos:station:DISL:DISL:1,2009-03-02T08:30:00Z,30.2513,-88.0778,4.207,1111122 
DISL,ioos:station:DISL:DISL:1,2009-03-02T09:00:00Z,30.2513,-88.0778,3.437,1111122 
DISL,ioos:station:DISL:DISL:1,2009-03-02T09:30:00Z,30.2513,-88.0778,3.371,1111122 
DISL,ioos:station:DISL:DISL:1,2009-03-02T10:00:00Z,30.2513,-88.0778,3.389,1111122 
DISL,ioos:station:DISL:DISL:1,2009-03-02T10:30:00Z,30.2513,-88.0778,3.361,1111122 
DISL,ioos:station:DISL:DISL:1,2009-03-02T11:00:00Z,30.2513,-88.0778,2.898,1111122 
DISL,ioos:station:DISL:DISL:1,2009-03-02T11:30:00Z,30.2513,-88.0778,2.658,1111122 
DISL,ioos:station:DISL:DISL:1,2009-03-02T12:00:00Z,30.2513,-88.0778,2.585,1111122 
DISL,ioos:station:DISL:DISL:1,2009-03-02T12:30:00Z,30.2513,-88.0778,2.433,1111122 
DISL,ioos:station:DISL:DISL:1,2009-03-02T13:00:00Z,30.2513,-88.0778,2.282,1111122 
DISL,ioos:station:DISL:DISL:1,2009-03-02T13:30:00Z,30.2513,-88.0778,2.347,1111122 
DISL,ioos:station:DISL:DISL:1,2009-03-02T14:00:00Z,30.2513,-88.0778,2.373,1111122 
DISL,ioos:station:DISL:DISL:1,2009-03-02T14:30:00Z,30.2513,-88.0778,2.374,1111122 
DISL,ioos:station:DISL:DISL:1,2009-03-02T15:00:00Z,30.2513,-88.0778,2.402,1111122 
DISL,ioos:station:DISL:DISL:1,2009-03-02T15:30:00Z,30.2513,-88.0778,2.858,1111122 
DISL,ioos:station:DISL:DISL:1,2009-03-02T16:00:00Z,30.2513,-88.0778,3.428,1111122 
DISL,ioos:station:DISL:DISL:1,2009-03-02T16:30:00Z,30.2513,-88.0778,4.056,1111122 
DISL,ioos:station:DISL:DISL:1,2009-03-02T17:00:00Z,30.2513,-88.0778,4.939,1111122 
DISL,ioos:station:DISL:DISL:1,2009-03-02T17:30:00Z,30.2513,-88.0778,5.779,1111122 
DISL,ioos:station:DISL:DISL:1,2009-03-02T18:00:00Z,30.2513,-88.0778,6.431,1111122 
DISL,ioos:station:DISL:DISL:1,2009-03-02T18:30:00Z,30.2513,-88.0778,7.18,1111122 
DISL,ioos:station:DISL:DISL:1,2009-03-02T19:00:00Z,30.2513,-88.0778,7.78,1111122 
DISL,ioos:station:DISL:DISL:1,2009-03-02T19:30:00Z,30.2513,-88.0778,8.66,1111122 
DISL,ioos:station:DISL:DISL:1,2009-03-02T20:00:00Z,30.2513,-88.0778,10.07,1111122 
DISL,ioos:station:DISL:DISL:1,2009-03-02T20:30:00Z,30.2513,-88.0778,11.21,1111122 
DISL,ioos:station:DISL:DISL:1,2009-03-02T21:00:00Z,30.2513,-88.0778,11.55,1111122 
DISL,ioos:station:DISL:DISL:1,2009-03-02T21:30:00Z,30.2513,-88.0778,11.73,1111122 
DISL,ioos:station:DISL:DISL:1,2009-03-02T22:00:00Z,30.2513,-88.0778,11.91,1111122 
DISL,ioos:station:DISL:DISL:1,2009-03-02T22:30:00Z,30.2513,-88.0778,12.28,1111122 
DISL,ioos:station:DISL:DISL:1,2009-03-02T23:00:00Z,30.2513,-88.0778,12.39,1111122 
DISL,ioos:station:DISL:DISL:1,2009-03-02T23:30:00Z,30.2513,-88.0778,12.36,1111122 
DISL,ioos:station:DISL:DISL:1,2009-03-03T00:00:00Z,30.2513,-88.0778,12.1,1111122 
DISL,ioos:station:DISL:DISL:1,2009-03-03T00:30:00Z,30.2513,-88.0778,11.79,1111122 
DISL,ioos:station:DISL:DISL:1,2009-03-03T01:00:00Z,30.2513,-88.0778,11.38,1111122 
DISL,ioos:station:DISL:DISL:1,2009-03-03T01:30:00Z,30.2513,-88.0778,10.97,1111122 
DISL,ioos:station:DISL:DISL:1,2009-03-03T02:00:00Z,30.2513,-88.0778,10.78,1111122 
DISL,ioos:station:DISL:DISL:1,2009-03-03T02:30:00Z,30.2513,-88.0778,10.66,1111122 
DISL,ioos:station:DISL:DISL:1,2009-03-03T03:00:00Z,30.2513,-88.0778,10.4,1111122 
DISL,ioos:station:DISL:DISL:1,2009-03-03T03:30:00Z,30.2513,-88.0778,10.15,1111122 
DISL,ioos:station:DISL:DISL:1,2009-03-03T04:00:00Z,30.2513,-88.0778,9.47,1111122 
DISL,ioos:station:DISL:DISL:1,2009-03-03T04:30:00Z,30.2513,-88.0778,9.24,1111122 
DISL,ioos:station:DISL:DISL:1,2009-03-03T05:00:00Z,30.2513,-88.0778,8.92,1111122 
DISL,ioos:station:DISL:DISL:1,2009-03-03T05:30:00Z,30.2513,-88.0778,8.46,1111122 
DISL,ioos:station:DISL:DISL:1,2009-03-03T06:00:00Z,30.2513,-88.0778,8.07,1111122 
DISL,ioos:station:DISL:DISL:1,2009-03-03T06:30:00Z,30.2513,-88.0778,7.74,1111122 
DISL,ioos:station:DISL:DISL:1,2009-03-03T07:00:00Z,30.2513,-88.0778,7.51,1111122 
DISL,ioos:station:DISL:DISL:1,2009-03-03T07:30:00Z,30.2513,-88.0778,7.31,1111122 
DISL,ioos:station:DISL:DISL:1,2009-03-03T08:00:00Z,30.2513,-88.0778,7.15,1111122 
DISL,ioos:station:DISL:DISL:1,2009-03-03T08:30:00Z,30.2513,-88.0778,6.777,1111122 
DISL,ioos:station:DISL:DISL:1,2009-03-03T09:00:00Z,30.2513,-88.0778,6.614,1111122 
DISL,ioos:station:DISL:DISL:1,2009-03-03T09:30:00Z,30.2513,-88.0778,6.412,1111122 
DISL,ioos:station:DISL:DISL:1,2009-03-03T10:00:00Z,30.2513,-88.0778,5.54,1111122 
DISL,ioos:station:DISL:DISL:1,2009-03-03T10:30:00Z,30.2513,-88.0778,5.186,1111122 
DISL,ioos:station:DISL:DISL:1,2009-03-03T11:00:00Z,30.2513,-88.0778,5.264,1111122 
DISL,ioos:station:DISL:DISL:1,2009-03-03T11:30:00Z,30.2513,-88.0778,4.437,1111122 
DISL,ioos:station:DISL:DISL:1,2009-03-03T12:00:00Z,30.2513,-88.0778,4.637,1111122 
DISL,ioos:station:DISL:DISL:1,2009-03-03T12:30:00Z,30.2513,-88.0778,4.37,1111122 
DISL,ioos:station:DISL:DISL:1,2009-03-03T13:00:00Z,30.2513,-88.0778,4.284,1111122 
DISL,ioos:station:DISL:DISL:1,2009-03-03T13:30:00Z,30.2513,-88.0778,4.399,1111122 
DISL,ioos:station:DISL:DISL:1,2009-03-03T14:00:00Z,30.2513,-88.0778,4.026,1111122 
DISL,ioos:station:DISL:DISL:1,2009-03-03T14:30:00Z,30.2513,-88.0778,3.995,1111122 
DISL,ioos:station:DISL:DISL:1,2009-03-03T15:00:00Z,30.2513,-88.0778,4.317,1111122 
DISL,ioos:station:DISL:DISL:1,2009-03-03T15:30:00Z,30.2513,-88.0778,4.785,1111122 
DISL,ioos:station:DISL:DISL:1,2009-03-03T16:00:00Z,30.2513,-88.0778,5.301,1111122 
DISL,ioos:station:DISL:DISL:1,2009-03-03T16:30:00Z,30.2513,-88.0778,5.464,1111122 
DISL,ioos:station:DISL:DISL:1,2009-03-03T17:00:00Z,30.2513,-88.0778,5.799,1111122 
DISL,ioos:station:DISL:DISL:1,2009-03-03T17:30:00Z,30.2513,-88.0778,6.116,1111122 
DISL,ioos:station:DISL:DISL:1,2009-03-03T18:00:00Z,30.2513,-88.0778,6.529,1111122 
DISL,ioos:station:DISL:DISL:1,2009-03-03T18:30:00Z,30.2513,-88.0778,6.894,1111122 
DISL,ioos:station:DISL:DISL:1,2009-03-03T19:00:00Z,30.2513,-88.0778,7.28,1111122 
DISL,ioos:station:DISL:DISL:1,2009-03-03T19:30:00Z,30.2513,-88.0778,7.85,1111122 
DISL,ioos:station:DISL:DISL:1,2009-03-03T20:00:00Z,30.2513,-88.0778,8.67,1111122 
DISL,ioos:station:DISL:DISL:1,2009-03-03T20:30:00Z,30.2513,-88.0778,9.38,1111122 
DISL,ioos:station:DISL:DISL:1,2009-03-03T21:00:00Z,30.2513,-88.0778,10.07,1111122 
DISL,ioos:station:DISL:DISL:1,2009-03-03T21:30:00Z,30.2513,-88.0778,10.27,1111122 
DISL,ioos:station:DISL:DISL:1,2009-03-03T22:00:00Z,30.2513,-88.0778,10.58,1111122 
DISL,ioos:station:DISL:DISL:1,2009-03-03T22:30:00Z,30.2513,-88.0778,10.82,1111122 
DISL,ioos:station:DISL:DISL:1,2009-03-03T23:00:00Z,30.2513,-88.0778,10.78,1111122 
DISL,ioos:station:DISL:DISL:1,2009-03-03T23:30:00Z,30.2513,-88.0778,10.63,1111122 
DISL,ioos:station:DISL:DISL:1,2009-03-04T00:00:00Z,30.2513,-88.0778,10.25,1111122 
DISL,ioos:station:DISL:DISL:1,2009-03-04T00:30:00Z,30.2513,-88.0778,10.24,1111122 
DISL,ioos:station:DISL:DISL:1,2009-03-04T01:00:00Z,30.2513,-88.0778,10.43,1111122 
DISL,ioos:station:DISL:DISL:1,2009-03-04T01:30:00Z,30.2513,-88.0778,10.57,1111122 
DISL,ioos:station:DISL:DISL:1,2009-03-04T02:00:00Z,30.2513,-88.0778,10.73,1111122 
DISL,ioos:station:DISL:DISL:1,2009-03-04T02:30:00Z,30.2513,-88.0778,10.98,1111122 
DISL,ioos:station:DISL:DISL:1,2009-03-04T03:00:00Z,30.2513,-88.0778,11.07,1111122 
DISL,ioos:station:DISL:DISL:1,2009-03-04T03:30:00Z,30.2513,-88.0778,11.04,1111122 
DISL,ioos:station:DISL:DISL:1,2009-03-04T04:00:00Z,30.2513,-88.0778,10.98,1111122 
DISL,ioos:station:DISL:DISL:1,2009-03-04T04:30:00Z,30.2513,-88.0778,11.06,1111122 
DISL,ioos:station:DISL:DISL:1,2009-03-04T05:00:00Z,30.2513,-88.0778,10.91,1111122 
DISL,ioos:station:DISL:DISL:1,2009-03-04T05:30:00Z,30.2513,-88.0778,10.86,1111122 
DISL,ioos:station:DISL:DISL:1,2009-03-04T06:00:00Z,30.2513,-88.0778,10.83,1111122 
DISL,ioos:station:DISL:DISL:1,2009-03-04T06:30:00Z,30.2513,-88.0778,10.64,1111122 
DISL,ioos:station:DISL:DISL:1,2009-03-04T07:00:00Z,30.2513,-88.0778,10.52,1111122 
DISL,ioos:station:DISL:DISL:1,2009-03-04T07:30:00Z,30.2513,-88.0778,10.43,1111122 
DISL,ioos:station:DISL:DISL:1,2009-03-04T08:00:00Z,30.2513,-88.0778,10.22,1111122 
DISL,ioos:station:DISL:DISL:1,2009-03-04T08:30:00Z,30.2513,-88.0778,10.06,1111122 
DISL,ioos:station:DISL:DISL:1,2009-03-04T09:00:00Z,30.2513,-88.0778,9.67,1111122 
DISL,ioos:station:DISL:DISL:1,2009-03-04T09:30:00Z,30.2513,-88.0778,9.41,1111122 
DISL,ioos:station:DISL:DISL:1,2009-03-04T10:00:00Z,30.2513,-88.0778,9.37,1111122 
DISL,ioos:station:DISL:DISL:1,2009-03-04T10:30:00Z,30.2513,-88.0778,9.5,1111122 
DISL,ioos:station:DISL:DISL:1,2009-03-04T11:00:00Z,30.2513,-88.0778,9.37,1111122 
DISL,ioos:station:DISL:DISL:1,2009-03-04T11:30:00Z,30.2513,-88.0778,9.32,1111122 
DISL,ioos:station:DISL:DISL:1,2009-03-04T12:00:00Z,30.2513,-88.0778,9.03,1111122 
DISL,ioos:station:DISL:DISL:1,2009-03-04T12:30:00Z,30.2513,-88.0778,9.28,1111122 
DISL,ioos:station:DISL:DISL:1,2009-03-04T13:00:00Z,30.2513,-88.0778,9.22,1111122 
DISL,ioos:station:DISL:DISL:1,2009-03-04T13:30:00Z,30.2513,-88.0778,9.17,1111122 
DISL,ioos:station:DISL:DISL:1,2009-03-04T14:00:00Z,30.2513,-88.0778,9.3,1111122 
DISL,ioos:station:DISL:DISL:1,2009-03-04T14:30:00Z,30.2513,-88.0778,9.49,1111122 
DISL,ioos:station:DISL:DISL:1,2009-03-04T15:00:00Z,30.2513,-88.0778,10.14,1111122 
DISL,ioos:station:DISL:DISL:1,2009-03-04T15:30:00Z,30.2513,-88.0778,10.83,1111122 
DISL,ioos:station:DISL:DISL:1,2009-03-04T16:00:00Z,30.2513,-88.0778,11.62,1111122 
DISL,ioos:station:DISL:DISL:1,2009-03-04T16:30:00Z,30.2513,-88.0778,12.65,1111122 
DISL,ioos:station:DISL:DISL:1,2009-03-04T17:00:00Z,30.2513,-88.0778,13.64,1111122 
DISL,ioos:station:DISL:DISL:1,2009-03-04T17:30:00Z,30.2513,-88.0778,13.86,1111122 
DISL,ioos:station:DISL:DISL:1,2009-03-04T18:00:00Z,30.2513,-88.0778,14.67,1111122 
DISL,ioos:station:DISL:DISL:1,2009-03-04T18:30:00Z,30.2513,-88.0778,14.8,1111122 
DISL,ioos:station:DISL:DISL:1,2009-03-04T19:00:00Z,30.2513,-88.0778,15.0,1111122 
DISL,ioos:station:DISL:DISL:1,2009-03-04T19:30:00Z,30.2513,-88.0778,15.36,1111122 
DISL,ioos:station:DISL:DISL:1,2009-03-04T20:00:00Z,30.2513,-88.0778,15.65,1111122 
DISL,ioos:station:DISL:DISL:1,2009-03-04T20:30:00Z,30.2513,-88.0778,15.49,1111122 
DISL,ioos:station:DISL:DISL:1,2009-03-04T21:00:00Z,30.2513,-88.0778,15.72,1111122 
DISL,ioos:station:DISL:DISL:1,2009-03-04T21:30:00Z,30.2513,-88.0778,15.86,1111122 
DISL,ioos:station:DISL:DISL:1,2009-03-04T22:00:00Z,30.2513,-88.0778,15.65,1111122 
DISL,ioos:station:DISL:DISL:1,2009-03-04T22:30:00Z,30.2513,-88.0778,15.59,1111122 
DISL,ioos:station:DISL:DISL:1,2009-03-04T23:00:00Z,30.2513,-88.0778,15.35,1111122 
DISL,ioos:station:DISL:DISL:1,2009-03-04T23:30:00Z,30.2513,-88.0778,15.15,1111122 
DISL,ioos:station:DISL:DISL:1,2009-03-05T00:00:00Z,30.2513,-88.0778,15.03,1111122 
DISL,ioos:station:DISL:DISL:1,2009-03-05T00:30:00Z,30.2513,-88.0778,15.04,1111122 
DISL,ioos:station:DISL:DISL:1,2009-03-05T01:00:00Z,30.2513,-88.0778,14.98,1111122 
DISL,ioos:station:DISL:DISL:1,2009-03-05T01:30:00Z,30.2513,-88.0778,15.06,1111122 
DISL,ioos:station:DISL:DISL:1,2009-03-05T02:00:00Z,30.2513,-88.0778,15.03,1111122 
DISL,ioos:station:DISL:DISL:1,2009-03-05T02:30:00Z,30.2513,-88.0778,14.99,1111122 
DISL,ioos:station:DISL:DISL:1,2009-03-05T03:00:00Z,30.2513,-88.0778,14.96,1111122 
DISL,ioos:station:DISL:DISL:1,2009-03-05T03:30:00Z,30.2513,-88.0778,15.1,1111122 
DISL,ioos:station:DISL:DISL:1,2009-03-05T04:00:00Z,30.2513,-88.0778,15.01,1111122 
DISL,ioos:station:DISL:DISL:1,2009-03-05T04:30:00Z,30.2513,-88.0778,14.89,1111122 
DISL,ioos:station:DISL:DISL:1,2009-03-05T05:00:00Z,30.2513,-88.0778,14.75,1111122 
DISL,ioos:station:DISL:DISL:1,2009-03-05T05:30:00Z,30.2513,-88.0778,13.66,1111122 
DISL,ioos:station:DISL:DISL:1,2009-03-05T06:00:00Z,30.2513,-88.0778,13.55,1111122 
DISL,ioos:station:DISL:DISL:1,2009-03-05T06:30:00Z,30.2513,-88.0778,13.48,1111122 
DISL,ioos:station:DISL:DISL:1,2009-03-05T07:00:00Z,30.2513,-88.0778,13.9,1111122 
DISL,ioos:station:DISL:DISL:1,2009-03-05T07:30:00Z,30.2513,-88.0778,13.88,1111122 
DISL,ioos:station:DISL:DISL:1,2009-03-05T08:00:00Z,30.2513,-88.0778,14.84,1111122 
DISL,ioos:station:DISL:DISL:1,2009-03-05T08:30:00Z,30.2513,-88.0778,14.46,1111122 
DISL,ioos:station:DISL:DISL:1,2009-03-05T09:00:00Z,30.2513,-88.0778,14.4,1111122 
DISL,ioos:station:DISL:DISL:1,2009-03-05T09:30:00Z,30.2513,-88.0778,14.47,1111122 
DISL,ioos:station:DISL:DISL:1,2009-03-05T10:00:00Z,30.2513,-88.0778,14.32,1111122 
DISL,ioos:station:DISL:DISL:1,2009-03-05T10:30:00Z,30.2513,-88.0778,14.36,1111122 
DISL,ioos:station:DISL:DISL:1,2009-03-05T11:00:00Z,30.2513,-88.0778,14.2,1111122 
DISL,ioos:station:DISL:DISL:1,2009-03-05T11:30:00Z,30.2513,-88.0778,14.14,1111122 
DISL,ioos:station:DISL:DISL:1,2009-03-05T12:00:00Z,30.2513,-88.0778,13.89,1111122 
DISL,ioos:station:DISL:DISL:1,2009-03-05T12:30:00Z,30.2513,-88.0778,14.07,1111122 
DISL,ioos:station:DISL:DISL:1,2009-03-05T13:00:00Z,30.2513,-88.0778,14.48,1111122 
DISL,ioos:station:DISL:DISL:1,2009-03-05T13:30:00Z,30.2513,-88.0778,14.81,1111122 
DISL,ioos:station:DISL:DISL:1,2009-03-05T14:00:00Z,30.2513,-88.0778,15.07,1111122 
DISL,ioos:station:DISL:DISL:1,2009-03-05T14:30:00Z,30.2513,-88.0778,12.79,1111122 
DISL,ioos:station:DISL:DISL:1,2009-03-05T15:00:00Z,30.2513,-88.0778,13.71,1111122 
DISL,ioos:station:DISL:DISL:1,2009-03-05T15:30:00Z,30.2513,-88.0778,14.59,1111122 
DISL,ioos:station:DISL:DISL:1,2009-03-05T16:00:00Z,30.2513,-88.0778,14.85,1111122 
DISL,ioos:station:DISL:DISL:1,2009-03-05T16:30:00Z,30.2513,-88.0778,15.04,1111122 
DISL,ioos:station:DISL:DISL:1,2009-03-05T17:00:00Z,30.2513,-88.0778,15.54,1111122 
DISL,ioos:station:DISL:DISL:1,2009-03-05T17:30:00Z,30.2513,-88.0778,14.91,1111122 
DISL,ioos:station:DISL:DISL:1,2009-03-05T18:00:00Z,30.2513,-88.0778,15.03,1111122 
DISL,ioos:station:DISL:DISL:1,2009-03-05T18:30:00Z,30.2513,-88.0778,15.5,1111122 
DISL,ioos:station:DISL:DISL:1,2009-03-05T19:00:00Z,30.2513,-88.0778,15.93,1111122 
DISL,ioos:station:DISL:DISL:1,2009-03-05T19:30:00Z,30.2513,-88.0778,16.05,1111122 
DISL,ioos:station:DISL:DISL:1,2009-03-05T20:00:00Z,30.2513,-88.0778,16.34,1111122 
DISL,ioos:station:DISL:DISL:1,2009-03-05T20:30:00Z,30.2513,-88.0778,16.54,1111122 
DISL,ioos:station:DISL:DISL:1,2009-03-05T21:00:00Z,30.2513,-88.0778,17.0,1111122 
DISL,ioos:station:DISL:DISL:1,2009-03-05T21:30:00Z,30.2513,-88.0778,16.58,1111122 
DISL,ioos:station:DISL:DISL:1,2009-03-05T22:00:00Z,30.2513,-88.0778,16.47,1111122 
DISL,ioos:station:DISL:DISL:1,2009-03-05T22:30:00Z,30.2513,-88.0778,16.34,1111122 
DISL,ioos:station:DISL:DISL:1,2009-03-05T23:00:00Z,30.2513,-88.0778,16.32,1111122 
DISL,ioos:station:DISL:DISL:1,2009-03-05T23:30:00Z,30.2513,-88.0778,15.9,1111122 
DISL,ioos:station:DISL:DISL:1,2009-03-06T00:00:00Z,30.2513,-88.0778,15.65,1111122 
DISL,ioos:station:DISL:DISL:1,2009-03-06T00:30:00Z,30.2513,-88.0778,15.33,1111122 
DISL,ioos:station:DISL:DISL:1,2009-03-06T01:00:00Z,30.2513,-88.0778,15.14,1111122 
DISL,ioos:station:DISL:DISL:1,2009-03-06T01:30:00Z,30.2513,-88.0778,15.04,1111122 
DISL,ioos:station:DISL:DISL:1,2009-03-06T02:00:00Z,30.2513,-88.0778,15.84,1111122 
DISL,ioos:station:DISL:DISL:1,2009-03-06T02:30:00Z,30.2513,-88.0778,15.79,1111122 
DISL,ioos:station:DISL:DISL:1,2009-03-06T03:00:00Z,30.2513,-88.0778,15.84,1111122 
DISL,ioos:station:DISL:DISL:1,2009-03-06T03:30:00Z,30.2513,-88.0778,16.05,1111122 
DISL,ioos:station:DISL:DISL:1,2009-03-06T04:00:00Z,30.2513,-88.0778,16.11,1111122 
DISL,ioos:station:DISL:DISL:1,2009-03-06T04:30:00Z,30.2513,-88.0778,15.92,1111122 
DISL,ioos:station:DISL:DISL:1,2009-03-06T05:00:00Z,30.2513,-88.0778,16.19,1111122 
DISL,ioos:station:DISL:DISL:1,2009-03-06T05:30:00Z,30.2513,-88.0778,16.25,1111122 
DISL,ioos:station:DISL:DISL:1,2009-03-06T06:00:00Z,30.2513,-88.0778,16.19,1111122 
DISL,ioos:station:DISL:DISL:1,2009-03-06T06:30:00Z,30.2513,-88.0778,15.98,1111122 
DISL,ioos:station:DISL:DISL:1,2009-03-06T07:00:00Z,30.2513,-88.0778,16.0,1111122 
DISL,ioos:station:DISL:DISL:1,2009-03-06T07:30:00Z,30.2513,-88.0778,15.8,1111122 
DISL,ioos:station:DISL:DISL:1,2009-03-06T08:00:00Z,30.2513,-88.0778,15.85,1111122 
DISL,ioos:station:DISL:DISL:1,2009-03-06T08:30:00Z,30.2513,-88.0778,15.91,1111122 
DISL,ioos:station:DISL:DISL:1,2009-03-06T09:00:00Z,30.2513,-88.0778,15.65,1111122 
DISL,ioos:station:DISL:DISL:1,2009-03-06T09:30:00Z,30.2513,-88.0778,15.38,1111122 
DISL,ioos:station:DISL:DISL:1,2009-03-06T10:00:00Z,30.2513,-88.0778,15.08,1111122 
DISL,ioos:station:DISL:DISL:1,2009-03-06T10:30:00Z,30.2513,-88.0778,14.72,1111122 
DISL,ioos:station:DISL:DISL:1,2009-03-06T11:00:00Z,30.2513,-88.0778,15.12,1111122 
DISL,ioos:station:DISL:DISL:1,2009-03-06T11:30:00Z,30.2513,-88.0778,15.37,1111122 
DISL,ioos:station:DISL:DISL:1,2009-03-06T12:00:00Z,30.2513,-88.0778,15.32,1111122 
DISL,ioos:station:DISL:DISL:1,2009-03-06T12:30:00Z,30.2513,-88.0778,15.64,1111122 
DISL,ioos:station:DISL:DISL:1,2009-03-06T13:00:00Z,30.2513,-88.0778,16.35,1111122 
DISL,ioos:station:DISL:DISL:1,2009-03-06T13:30:00Z,30.2513,-88.0778,17.11,1111122 
DISL,ioos:station:DISL:DISL:1,2009-03-06T14:00:00Z,30.2513,-88.0778,17.19,1111122 
DISL,ioos:station:DISL:DISL:1,2009-03-06T14:30:00Z,30.2513,-88.0778,17.0,1111122 
DISL,ioos:station:DISL:DISL:1,2009-03-06T15:00:00Z,30.2513,-88.0778,16.72,1111122 
DISL,ioos:station:DISL:DISL:1,2009-03-06T15:30:00Z,30.2513,-88.0778,17.51,1111122 
DISL,ioos:station:DISL:DISL:1,2009-03-06T16:00:00Z,30.2513,-88.0778,17.46,1111122 
DISL,ioos:station:DISL:DISL:1,2009-03-06T16:30:00Z,30.2513,-88.0778,17.85,1111122 
DISL,ioos:station:DISL:DISL:1,2009-03-06T17:00:00Z,30.2513,-88.0778,17.83,1111122 
DISL,ioos:station:DISL:DISL:1,2009-03-06T17:30:00Z,30.2513,-88.0778,18.04,1111122 
DISL,ioos:station:DISL:DISL:1,2009-03-06T18:00:00Z,30.2513,-88.0778,18.07,1111122 
DISL,ioos:station:DISL:DISL:1,2009-03-06T18:30:00Z,30.2513,-88.0778,18.37,1111122 
DISL,ioos:station:DISL:DISL:1,2009-03-06T19:00:00Z,30.2513,-88.0778,18.5,1111122 
DISL,ioos:station:DISL:DISL:1,2009-03-06T19:30:00Z,30.2513,-88.0778,18.41,1111122 
DISL,ioos:station:DISL:DISL:1,2009-03-06T20:00:00Z,30.2513,-88.0778,18.63,1111122 
DISL,ioos:station:DISL:DISL:1,2009-03-06T20:30:00Z,30.2513,-88.0778,19.13,1111122 
DISL,ioos:station:DISL:DISL:1,2009-03-06T21:00:00Z,30.2513,-88.0778,18.6,1111122 
DISL,ioos:station:DISL:DISL:1,2009-03-06T21:30:00Z,30.2513,-88.0778,18.54,1111122 
DISL,ioos:station:DISL:DISL:1,2009-03-06T22:00:00Z,30.2513,-88.0778,18.64,1111122 
DISL,ioos:station:DISL:DISL:1,2009-03-06T22:30:00Z,30.2513,-88.0778,18.37,1111122 
DISL,ioos:station:DISL:DISL:1,2009-03-06T23:00:00Z,30.2513,-88.0778,18.33,1111122 
DISL,ioos:station:DISL:DISL:1,2009-03-06T23:30:00Z,30.2513,-88.0778,18.04,1111122 
DISL,ioos:station:DISL:DISL:1,2009-03-07T00:00:00Z,30.2513,-88.0778,17.82,1111122 
DISL,ioos:station:DISL:DISL:1,2009-03-07T00:30:00Z,30.2513,-88.0778,17.49,1111122 
DISL,ioos:station:DISL:DISL:1,2009-03-07T01:00:00Z,30.2513,-88.0778,17.55,1111122 
DISL,ioos:station:DISL:DISL:1,2009-03-07T01:30:00Z,30.2513,-88.0778,17.48,1111122 
DISL,ioos:station:DISL:DISL:1,2009-03-07T02:00:00Z,30.2513,-88.0778,17.25,1111122 
DISL,ioos:station:DISL:DISL:1,2009-03-07T02:30:00Z,30.2513,-88.0778,17.02,1111122 